www.pogodaiklimat.ru

Погода и климат >> Архив погоды >> Австралия >> Северная территория >> Дейли Уотерс


ПОГОДА в Дейли Уотерс

  • Прогноз погоды в Дейли Уотерс
  • Монитор погоды в Дейли Уотерс

АРХИВ ПОГОДЫ в Дейли Уотерс

Время (UTC), дата Ветер
(напр.,м/с)
 
Видим.   Явления Облачность Т
(С)
Тd
(С)
f
(%)
Тe
(С)
Тes
(С)
Комфортность P
(гПа)
Po
(гПа)
Тmin
(С)
Tmax
(С)
R
(мм)
R24
(мм)
S
(см)
08 18.06 Ю 5 н/о н/о +27.0 +3.5 22 +26 +26 жарко 1014.9 990.5
11 18.06 ЮВ 3 н/о н/о +21.3 +2.6 29 +21 +21 комфорт 1017.0 992.5
14 18.06 ЮВ 2 н/о н/о +16.6 -3.5 25 +17 +17 1018.1 993.6 +29.4
17 18.06 ЮВ 3 н/о н/о +15.8 -3.1 27 +16 +16 1017.5 993.0
20 18.06 ЮВ 2 н/о н/о +12.3 -2.7 35 +12 +12 1018.1 993.6
23 18.06 ЮВ 4 н/о н/о +15.6 -1.4 31 +15 +15 1019.3 994.7
02 19.06 ЮВ 4 н/о н/о +21.9 -0.8 22 +21 +21 комфорт 1018.1 993.6 +11.8
05 19.06 Ю 3 н/о н/о +25.8 -2.8 15 +24 +24 комфорт 1014.8 990.4
08 19.06 ЮВ 3 н/о н/о +25.0 -3.4 15 +23 +23 комфорт 1014.8 990.4
11 19.06 Ю 2 н/о н/о +15.0 -2.9 29 +15 +15 1016.7 992.2
14 19.06 ЮВ 3 н/о н/о +15.5 -1.5 31 +15 +15 1017.4 992.9 +26.7
17 19.06 ЮВ 2 н/о н/о +13.2 -1.9 35 +13 +13 1017.8 993.3
20 19.06 ЮВ 2 н/о н/о +13.3 -1.4 36 +13 +13 1018.3 993.8
23 19.06 ЮВ 3 н/о н/о +15.8 0.0 34 +15 +15 1019.8 995.2
02 20.06 ЮВ 4 н/о н/о +22.8 +0.6 23 +22 +22 комфорт 1019.0 994.5 +12.2
05 20.06 Ю 4 н/о н/о +25.3 -2.3 16 +23 +23 комфорт 1015.9 991.4
08 20.06 ЮВ 3 н/о н/о +25.0 -3.4 15 +23 +23 комфорт 1015.7 991.2
11 20.06 Ю 2 н/о н/о +15.4 -2.1 30 +16 +16 1017.5 993.0
14 20.06 ЮВ 3 н/о н/о +16.2 -0.9 31 +16 +16 1018.3 993.8 +26.8
17 20.06 ЮВ 2 н/о н/о +12.7 -1.2 38 +13 +13 1018.1 993.6
20 20.06 ЮВ 3 н/о н/о +14.4 -0.8 35 +14 +14 1018.4 993.9
23 20.06 ЮВ 5 н/о н/о +15.3 -0.4 34 +14 +14 1019.6 995.0
02 21.06 ЮВ 4 н/о н/о +20.8 +0.1 25 +21 +21 комфорт 1018.7 994.2 +12.3
05 21.06 ЮВ 3 н/о н/о +25.3 -1.5 17 +23 +23 комфорт 1014.9 990.5
08 21.06 ЮВ 4 н/о н/о +24.8 -1.9 17 +23 +23 комфорт 1014.8 990.4
11 21.06 Ю 2 н/о н/о +19.2 -1.8 24 +20 +20 1016.7 992.2
14 21.06 ЮВ 3 н/о н/о +16.3 -0.8 31 +16 +16 1017.4 992.9 +26.6
17 21.06 ЮВ 4 н/о н/о +15.9 -1.6 30 +15 +15 1017.4 992.9
20 21.06 ЮВ 4 н/о н/о +13.7 -3.5 30 +13 +13 1017.8 993.3
23 21.06 ЮВ 5 н/о н/о +14.2 -3.6 29 +13 +13 1019.3 994.7
02 22.06 В 4 н/о н/о +20.2 -2.2 22 +20 +20 1018.5 994.0 +12.5
05 22.06 ЮВ 4 н/о н/о +24.3 -2.3 17 +23 +23 комфорт 1015.4 990.9
08 22.06 ЮВ 3 н/о н/о +24.0 -4.2 15 +22 +22 комфорт 1014.5 990.1
11 22.06 Ю 3 н/о н/о +18.6 -3.5 22 +19 +19 1016.8 992.3
14 22.06 ЮВ 3 н/о н/о +16.0 -5.1 23 +16 +16 1017.5 993.0 +25.5
17 22.06 ЮВ 2 н/о н/о +11.6 -7.2 26 +12 +12 1017.1 992.6
20 22.06 ЮВ 4 н/о н/о +13.4 -7.3 23 +12 +12 1017.4 992.9
23 22.06 ЮВ 5 н/о н/о +13.7 -6.5 24 +12 +12 1018.9 994.4
02 23.06 ЮВ 3 н/о н/о +20.9 -5.8 16 +21 +21 комфорт 1018.9 994.4 +11.4
05 23.06 ЮВ 4 н/о н/о +25.1 -7.4 11 +22 +22 комфорт 1016.1 991.6
08 23.06 ЮВ 4 н/о н/о +25.1 -8.6 10 +22 +22 комфорт 1015.6 991.1
11 23.06 ЮВ 2 н/о н/о +18.1 -9.8 14 +19 +19 1017.2 992.7
14 23.06 ЮВ 3 н/о н/о +14.9 -8.5 19 +15 +15 1018.3 993.8 +26.5
17 23.06 Ю 2 н/о н/о +8.3 -8.2 30 +8 +8 1018.4 993.9
20 23.06 ЮВ 2 н/о н/о +11.8 -8.1 24 +11 +11 1018.7 994.2
23 23.06 ЮВ 5 н/о н/о +14.1 -6.1 24 +13 +13 1020.3 995.7
02 24.06 ЮВ 3 н/о н/о +22.3 -5.6 15 +21 +21 комфорт 1020.1 995.5 +6.7
05 24.06 ЮВ 3 н/о н/о +26.4 -6.4 11 +24 +24 комфорт 1017.3 992.8
08 24.06 ЮВ 3 н/о н/о +26.0 -7.9 10 +23 +23 комфорт 1017.2 992.7
11 24.06 ЮВ 2 н/о н/о +16.9 -9.9 15 +18 +18 1019.1 994.6
14 24.06 ЮВ 2 н/о н/о +16.5 -9.4 16 +17 +17 1019.4 994.8 +27.5
17 24.06 ЮВ 3 н/о н/о +14.4 -8.2 20 +14 +14 1019.3 994.7
20 24.06 ЮВ 2 н/о н/о +12.3 -8.8 22 +12 +12 1019.7 995.1
23 24.06 ЮВ 3 н/о н/о +15.7 -8.5 18 +15 +15 1021.2 996.6
02 25.06 ЮВ 4 н/о н/о +22.9 -6.9 13 +21 +21 комфорт 1020.4 995.8 +11.9
05 25.06 ЮВ 4 н/о н/о +26.4 -7.6 10 +23 +23 комфорт 1017.6 993.1

 

Местоположение метеостанции Дейли Уотерс (Северная территория, Австралия): широта -16.25 долгота 133.37 высота над уровнем моря 211 м.

В архиве по умолчанию представлена погода в Дейли Уотерс за последнюю неделю. Архивные данные за месяц целиком и за предыдущие месяцы, начиная с января 2011 года, Вы можете получить, выбрав интересующий диапазон дат из раскрывающегося списка и нажав кнопку "Ввод!".


*Определитесь, кто Вы:
робот инопланетянин человек

Внимание! Время в таблицах - всемирное. Для получения местного времени необходимо прибавить поправку, которая равна 9.5 ч.

Смотрите также архив погоды в соседних городах и на ближайших метеорологических станциях:

Погода на Базе ВВС Delamere Weapons Range (Северная территория, Австралия) (165 км)
Погода в Тиндале (Северная территория, Австралия) (222 км)
Погода в Виктория-Ривер (Северная территория, Австралия) (251 км)
Погода в Аэропорту Макартур Ривер Майн (Северная территория, Австралия) (289 км)
Погода в Булман Уимол (Северная территория, Австралия) (305 км)
Погода в Манбуллу Ксиро (Северная территория, Австралия) (311 км)
Погода в Борролооле (Северная территория, Австралия) (314 км)
Погода на Центральном плато Арнем (Северная территория, Австралия) (326 км)
Погода на Маяке Кейп-Дон (Северная территория, Австралия) (357 км)
Погода на Острове Центр (Северная территория, Австралия) (371 км)

Пояснения к столбцам:

Ветер - указаны скорость ветра в м/с - средняя за 10 мин, порывы в срок и между сроками (в фигурных скобках) и направление, откуда дует ветер: С - северный, СВ - северо-восточный, В - восточный, ЮВ - юго-восточный, Ю - южный, ЮЗ - юго-западный, З - западный, СЗ - северо-западный.
Видимость - горизонтальная дальность видимости в метрах или километрах. При видимости от 1 до 10 км при отсутствии осадков обычно наблюдается дымка, при ухудшении видимости до 1 км и менее - туман. В сухую погоду видимость может ухудшаться дымом, пылью или мглою.
Явления - указаны атмосферные явления, наблюдавшиеся в срок или в последний час перед сроком; фигурными скобками обозначены явления, наблюдавшиеся между сроками (за 1-3 часа до срока); квадратными скобками обозначены град или гололедные отложения с указанием их диаметра в мм.
Облачность - указаны через наклонную черту общая и нижняя облачность в баллах и высота нижней границы облаков в метрах; квадратными скобками обозначены формы облаков: Ci - перистые, Cs - перисто-слоистые, Cc - перисто-кучевые, Ac - высококучевые, As - высокослоистые, Sc - слоисто-кучевые, Ns - слоисто-дождевые, Cu - кучевые, Cb - кучево-дождевые. Подробнее классификацию облаков см. в Атласе облаков (PDF).
T - Температура воздуха - температура, измеренная на высоте 2 м над землей.
Td - Температура точки росы - температура, при понижении до которой содержащийся в воздухе водяной пар достигнет насыщения.
f - Относительная влажность воздуха - влажноcть воздуха, измеренная на высоте 2 м над землей.
Te - Эффективная температура - температура, которую ощущает одетый по сезону человек в тени. Характеристика душности погоды. При расчете учитывается влияние влажности воздуха и скорости ветра на теплоощущения человека.
Tes - Эффективная температура на солнце - температура, которую ощущает человек, с поправкой на солнечный нагрев. Характеристика знойности погоды. Зависит от высоты солнца над горизонтом, облачности и скорости ветра. Ночью, в пасмурную погоду, а также при ветре 12 м/с и более поправка равна нулю.
P - Атмосферное давление - приведенное к уровню моря атмосферное давление.
Po - Атмосферное давление - измеренное на уровне метеостанции атмосферное давление.
Tmin - Минимальная температура - минимум температуры воздуха на высоте 2 м над землей.
Tmax - Максимальная температура - максимум температуры воздуха на высоте 2 м над землей.
R - Количество осадков - Количество выпавших осадков за период времени, мм. При наведении курсора мыши на число - период времени, за который выпало указанное количество осадков.
R24 - Количество осадков - Количество выпавших осадков за 24 часа, мм.
S - Снежный покров - Высота снежного покрова, см. При наведении курсора мыши на число - состояние снежного покрова и степень покрытия местности в баллах.